Location: Krakow
(50.0830°N, 19.9170°E)
Time: 07:31:45
(UTC+02:00)

Tiros 1 despin weight - Pass Details

Date: 16 March 2026
Orbit: 555 x 592 km, 48.2° (Epoch: 18 April)

Event Time Altitude Azimuth Distance (km) Brightness Sun altitude
Rises 04:09:07 0° 210° (SSW) 2,810 - -17.1°
Reaches altitude 10° 04:11:48 10° 195° (SSW) 1,909 - -16.7°
Exits shadow 04:12:06 11° 192° (SSW) 1,824 ? -16.7°
Maximum altitude 04:15:06 21° 146° (SE) 1,329 ? -16.2°
Drops below altitude 10° 04:18:24 10° 96° (E) 1,903 ? -15.7°
Sets 04:21:05 0° 81° (E) 2,799 ? -15.3°
